"Pseudo-MPEC" for P10HIxG

Created 2018 Jun 22 16:18:03 UT using Find_Orb

Click here for an explanation of pseudo-MPECs

 
 Astrometry: 
     P10HIxG  C2018 05 19xUAstrometryTK:hJtc`o0CjX`J/?bI#;w5Tg4Z=f5K8P9J40KDSI41
     P10HIxG  C2018 05 19pWmt@f\iiQf$_-8@$%UPq+ig/F!sKy'uVtov;,?*]_cwlU=q4L!+I41
     P10HIxG  C2018 05 192DLAj';p'Bk7p;heG-p^m3[9hRd#%ebk0ifTp'$w#p5N1Wm2d=p1I41
     P10HIxG  C2018 05 19PRK?*ivcU^T?MAsxxuZHdb3AUE`s;q#GvB,frou1$:8yg6U?25API41
     P10HIxG  C2018 06 04QTLaSf4I77p44T,LO=PCVOdl**XtKc%Z5f3U6l8-Zc425=P?:`n%F51
     P10HIxG  C2018 06 05RS/e'4N,n=M\r'rd?YEyw322QRkJ.-Ys4H!uHRjO%UI8TH5A4HLPF52
     P10HIxG  C2018 06 05TrRTBaV4P$6%tT'MEW,TZDb\4)q60Gj(TxJ;nOE*e$%t,,s=lMwjF52
     P10HIxG  C2018 06 05i3$L*:\,^d`75!+o**J/YDo?=21D/!gBZ9'Nv3g`sXON=EXHy\1XF52
     P10HIxG  C2018 06 08ZwwlbuUcbQwXLRE98qhF4g%6f;!DB[usM]I\14xgl$?8=20hTWA6F51
     P10HIxG  C2018 06 08m-QH+M*G1=Jn=[(o#Nsvfj.QXb.5)x\j)*uW4!Xr(nj=P_t$3qEWF51
     P10HIxG  C2018 06 08Yv6B^%%\aJeEEvZ!T4s6(c.X#(\jy'GYW]U;4QW^q#^m7_K2lSveF51
     P10HIxG  C2018 06 08S)!C\)jo:(JVD9-Vw$Y5Lpt(A-tN]u9jX:3:wW08_4H^MUn%4M::F51
     P10HIxG ^C2018 06 10.41826417 26 24.328+28 16 59.01         20.77GVNEOCP568
     P10HIxG ^C2018 06 10.41943917 26 24.303+28 16 58.76         20.83GVNEOCP568
     P10HIxG ^C2018 06 10.42061617 26 24.279+28 16 58.52         20.75GVNEOCP568
     P10HIxG  C2018 06 11.18874 17 26 10.77 +28 13 47.8                UNEOCPI52
     P10HIxG  C2018 06 11.20609 17 26 10.49 +28 13 43.5                UNEOCPI52
     P10HIxG  C2018 06 11.21472 17 26 10.26 +28 13 41.4          21.3 GUNEOCPI52
     P10HIxG  C2018 06 11wiBPpFgk_WISj+!(C;kSDGIht=\q`$i6u5#@N4D[XfZDcu`.N*/uV06
     P10HIxG  C2018 06 11-QI%4telcVAR3bH`aZ(:Fki`qEcFRno1(iQO,ap^t2vrWNbKtS;5V06
     P10HIxG  C2018 06 11-fZJ3f?\x!OP26!Kd3ia`Irh1w=?8RLY2wlxp(vq.%uo#FZjiu*9V06
     P10HIxG  C2018 06 11Gs$D6C7hppGR=DOhS.j($G(88q3vd4oiX_2oM\?'][ZTcC3K3oO[V06
     P10HIxG KC2018 06 11wAMH.I3B?VUXBJ,YDredacted;g%!q_:Lj'usr;iu#m.Ff!D`%Ps711
     P10HIxG KC2018 06 11Ir6)MaBlUI6\D/S=$Bl(5(!r)F2bP,fBoP]kv8:2N_u'VT$H6mIN711
     P10HIxG KC2018 06 11!o`=yl)VhR,KD(=^nlwiM-CQ/3EeQH9,qJpl-[`2`*n$BJt,w'))711
     P10HIxG KC2018 06 117=(VHPp/Gp3q@xwd8d3-Of'5=bsSj(0lX!YPhQl/)jim(TZx;0By711
     P10HIxG KC2018 06 115^r68bUQ(0dXy;JbxnQFP+(jFBj6[bLM%jO4u1D`iCUm_T7Fv)wq711
     P10HIxG 5C2018 06 11)s;?T#k'\60p1A;qd8'Xx[Ni[Ne;Wbfa6'D_rLAb\8sX-EByLTQ-U69
     P10HIxG 5C2018 06 11(@BW`7h$O8+0]D(cfjyX=W?brhTJO7DqH*c6-gfELP\q2E7VEIsVU69
     P10HIxG 5C2018 06 12B6V:$ed./YJmB`/\V\-h\xD[Gr7C.n]fYt[eT_XvEY`3v\o)%+'#U69
     P10HIxG 5C2018 06 12f(u$K)LbJ_dD@ORYbO$A5^.1uWncO#O1y-6\Yx,c+8l]qT2PO!4]U69
     P10HIxG 5C2018 06 12fco4cX=A-NtodVN==mZH+L_W[L-dMun_q(OC6Nq+m(Z0E'jGfp,wU69
     P10HIxG  C2018 06 13.34916 17 25 30.76 +28 02 47.2          19.6 GUNEOCPI52
     P10HIxG HC2018 06 13+X^p`ZrTsi6OrjM.?DnfL(PK/@LOjYMvk1lQE_r-PH%@ug9?5%F=691
     P10HIxG HC2018 06 13UKOx0@W]pHHTnZmfgC4FcgW]#7)tFTUvRepcH@fp\tg+)es))]J:691
     P10HIxG HC2018 06 13t'Q#x1WNBD[DdG:Fu3cE(k(1(R%ZWY6/EG]ci[D3yF'EA:a^2`fX691
     P10HIxG  C2018 06 13.35754 17 25 30.59 +28 02 44.6          19.7 GUNEOCPI52
     P10HIxG  C2018 06 13.37374 17 25 30.20 +28 02 38.8          19.6 GUNEOCPI52
     P10HIxG  C2018 06 14.29574 17 25 13.36 +27 56 53.8          19.2 GUNEOCPI52
     P10HIxG  C2018 06 14.31235 17 25 13.02 +27 56 47.8          19.8 GUNEOCPI52
     P10HIxG  C2018 06 14.32480 17 25 12.72 +27 56 43.0          19.6 GUNEOCPI52
     P10HIxG KC2018 06 14BQ:NW=bhPxwuE4^ho]Un]7mX+.=rH]PDijra[B83?33-L!/1JlHq587
     P10HIxG KC2018 06 14$S%A%'YUKwV;XxSF=AYJm4VE*G!UZZa[6f7jcm+vk9BbZ!fM5F)5587
     P10HIxG KC2018 06 14P+\Q17egrbl9R/`7+QP'm0(Y7r%t-/YC:k[%2-_5oQN!;58@C(4S587
     P10HIxG  C2018 06 170GE\M?i6y3QDH0VUpk$!t%/q=):E=H/emll25(e3/$D@Y:1];+XnI41
     P10HIxG  C2018 06 174OxNNov]ZC)0?cuuv_@%3Z6KPvgbD!7Bsee*elZ$,-4%pcTFHTAMI41
     P10HIxG  C2018 06 18BUm+nZm86^5@I'T-XfnFEdye2.,:P;2CGZ#:LmSa3VBh\*Hx!mqeI41
     P10HIxG  C2018 06 18G\QUBE_]1(^k_SrS,3@bVby:=G8o/]pEhKAhdYSlqy+Jq80*Ys:uI41
     P10HIxG  C2018 06 18rT8sG0B0m806=QX'd1M60Y`'qq2*Dp[C(Of8vXHfvTDWrV+.@IHiI41
     P10HIxG KC2018 06 19t4t:ThOr1W!QpR0r,L==yMH-mfVoVP)*Hx^6M0+2SUc'6I.Sg-inA77
     P10HIxG KC2018 06 19N0KC@U'JX%bnRrJ7^$FA(9E6F2w'UkUepx+%/^^q,kDW(([)_V1RA77
     P10HIxG KC2018 06 20!!RgxYCi4b:gn@FW$_)0PMg2/oHY4'-YfEIU-cvU)v3a[q1C_xR;A77
     P10HIxG  C2018 06 20.31296 17 23 23.48 +27 03 59.9          19.5 GUNEOCP703
     P10HIxG  C2018 06 20.31893 17 23 23.44 +27 03 55.8          19.5 GUNEOCP703
     P10HIxG  C2018 06 20.32226 17 23 23.37 +27 03 53.6          19.2 GUNEOCPI52
     P10HIxG  C2018 06 20.32623 17 23 23.29 +27 03 51.2          19.1 GUNEOCPI52
     P10HIxG  C2018 06 20.33087 17 23 23.21 +27 03 48.2          19.2 GUNEOCP703
     P10HIxG  C2018 06 20.33091 17 23 23.16 +27 03 48.2          19.6 GUNEOCPI52
     P10HIxG  C2018 06 20.33681 17 23 23.04 +27 03 44.4          19.5 GUNEOCPI52
     P10HIxG IC2018 06 20mUtN///ei)0l8q/4'l0nSldJW-cU9%InSwX,t'O#7A;cP)DB:8u`L01
     P10HIxG KC2018 06 20=ccMVBv%vM]83W@c51**N54rW(0-hf-+)JX:m.?i5V[Ig!fgJa;_B96
     P10HIxG KC2018 06 20u4qWxXE?e*i=\K5%;E;3*i].PyH%gs\?Q[^pf;_)1v.GU#FpAYg%B96
     P10HIxG KC2018 06 20IJhS#6Yj/o0`QHVqcoukbv!fBqa8A%c/X@Ek1.aAnli$cSs=(?Y$B96
     P10HIxG KC2018 06 20@yFka^\'!k:A6+RxFMl8=JUJwr,,06+0\F3@(nuM.=no;:Ba-91bB96
     P10HIxG KC2018 06 20=/5I%u3pD,'1c%!7h=T\fpPcW]VCtRiw1d1'jUgKfm5EngfZ#R*TL01
     P10HIxG PC2018 06 20obkL_Ek4wx.^CcKn)?])3cpyDN,((!DM')s'ta%w`35)Q`Q4%5qmL01
     P10HIxG  C2018 06 21.26538 17 23 07.40 +26 53 09.0          19.4 GUNEOCPI52
     P10HIxG  C2018 06 21.26921 17 23 07.31 +26 53 06.7          19.7 GUNEOCPI52
     P10HIxG  C2018 06 21.27398 17 23 07.26 +26 53 02.9          19.3 GUNEOCPI52
     P10HIxG  C2018 06 21.27820 17 23 07.11 +26 53 00.6          19.6 GUNEOCPI52
     P10HIxG  C2018 06 22.26631 17 22 50.60 +26 41 02.8                UNEOCPG96
     P10HIxG  C2018 06 22.27151 17 22 50.56 +26 40 58.3                UNEOCPG96
     P10HIxG  C2018 06 22.27671 17 22 50.46 +26 40 53.7          19.3 GUNEOCPG96
     P10HIxG  C2018 06 22.28192 17 22 50.41 +26 40 49.7          19.7 GUNEOCPG96
     P10HIxG  C2018 06 22.35374 17 22 48.94 +26 39 55.5          19.3 GUNEOCPI52
     P10HIxG  C2018 06 22.35812 17 22 48.85 +26 39 52.1          19.3 GUNEOCPI52
     P10HIxG  C2018 06 22.36686 17 22 48.59 +26 39 45.7                UNEOCPI52
     P10HIxG KC2018 06 22xhFvR%x.I%5SR=M:v$T/9]:4)Y#BMR^YW6A[p14HN;$tpg3S(gBe291
     P10HIxG KC2018 06 22!Ee'!..TFBe7=F-N4/V*LZ$BH7P*YLoZKZ;MB$[iFFZcGgl[PHe)291
     P10HIxG KC2018 06 22iyQ[O[:U*Ndi-amh*mid16+#K[%7^.Z79o@NcuX7!w[/^(QNEOCP291

Station data:
(291) LPL/Spacewatch II  (N31.961669 W111.599905)  US/Arizona.  Observers J.
   V. Scotti, R. S. McMillan. 1.8-m f/2.7 reflector + CCD.
(568) Mauna Kea  (N19.826116 W155.472200)  US/Hawaii.
(587) Sormano  (N45.882949 E9.229180)  Italy.  Observers F. Manca, A. Testa.
   Measurer F. Manca. 0.5-m + CCD.
(691) Steward Observatory, Kitt Peak - Spacewatch  (N31.962174 W111.600327)
   US/Arizona.  Observer J. V. Scotti. 0.9-m f/3 reflector + CCD.
(703) Catalina Sky Survey  (N32.417006 W110.732640)  US/Arizona.  Observers
   B. M. Africano, E. J. Christensen, D. C. Fuls, A. R. Gibbs, A. D. Grauer,
   J. A. Johnson, R. A. Kowalski, S. M. Larson, G. J. Leonard, R. L. Seaman,
   F. C. Shelly. 0.68 m Schmidt + 10K CCD.
(711) McDonald Observatory, Fort Davis  (N30.671481 W104.021500)  US/Texas.
   0.76-m f/3.0 reflector.
(A77) Observatoire Chante-Perdrix  (N43.999665 E5.647500)  France.
   Observers J.-F. Soulier, C. Rinner, F. Kugel, J. Nicolas.
(B96) Brixiis Observatory, Kruibeke  (N51.163512 E4.310310)  Belgium.
(F51) Pan-STARRS 1, Haleakala  (N20.707235 W156.255910)  US/Hawaii.
   Observers N. Primak, A. Schultz, S. Watters, J. Thiel, T. Goggia. Measurer
   PS1 Science Consortium. 1.8-m Ritchey-Chrétien + CCD.
(F52) Pan-STARRS 2, Haleakala  (N20.707384 W156.255910)  US/Hawaii.
(G96) Mt. Lemmon Survey  (N32.442754 W110.788720)  US/Arizona.  Observers B.
   M. Africano, E. J. Christensen, D. C. Fuls, A. R. Gibbs, A. D. Grauer, J.
   A. Johnson, R. A. Kowalski, S. M. Larson, G. J. Leonard, R. L. Seaman, F.
   C. Shelly. 1.5-m reflector + 10K CCD.
(I41) Palomar Mountain--ZTF  (N33.357340 W116.859780)  US/California. 1.2-m
   f/2.44 Oschin Schmidt + CCD.
(I52) Steward Observatory, Mt. Lemmon Station  (N32.442547 W110.788920)
   US/Arizona.  Observers B. M. Africano, E. J. Christensen, D. C. Fuls, A.
   R. Gibbs, A. D. Grauer, J. A. Johnson, R. A. Kowalski, S. M. Larson, G. J.
   Leonard, R. L. Seaman, F. C. Shelly. 1.0-m reflector + CCD.
(L01) Višnjan Observatory, Tičan  (N45.290900 E13.749300)  Croatia.  Observer
   K. Korlević. 1.0-m f/2.9 reflector + CCD.
(U69) iTelescope SRO Observatory, Auberry  (N37.070390 W119.413000)
   US/California. 0.61-m f/6.5 astrograph + CCD.
(V06) Catalina Sky Survey-Kuiper  (N32.416847 W110.732550)  US/Arizona.
   Observers B. M. Africano, E. J. Christensen, D. C. Fuls, A. R. Gibbs, A.
   D. Grauer, J. A. Johnson, R. A. Kowalski, S. M. Larson, G. J. Leonard, R.
   L. Seaman, F. C. Shelly. 1.55-m reflector + CCD.

Orbital elements:  P10HIxG
   Perihelion 2018 Jul 31.800518 +/- 0.034 TT = 19:12:44 (JD 2458331.300518)
Epoch 2018 Jun 22.0 TT = JDT 2458291.5   Earth MOID: 0.7265   Ju: 0.0529
M 356.41509 +/- 0.0007              (J2000 ecliptic)          AutoNEOCP
n   0.09007193 +/- 8.58e-5          Peri.  140.39828 +/- 0.033
a   4.92882116 +/- 0.00313          Node   145.20500 +/- 0.011
e   0.6599215 +/- 0.000241          Incl.   26.61931 +/- 0.0025
P  10.94                   H 18.0   G  0.15   U  6.5  
q 1.67618580 +/- 0.00014    Q 8.18145652 +/- 0.00638
From 80 observations 2018 May 19-June 22; mean residual 0".51
Residuals in arcseconds: 
180519 I41  .26-  .37+    180611 U69  .17+  .49+    180620 I52  .33+  .64-    
180519 I41  .41-  1.2-    180611 U69  .24+  .21+    180620 I52  .39+  .38-    
180519 I41  2.2-  .29-    180612 U69  .80-  .50+    180620 703  .63+  .28-    
